Regional Weather Roundup
Issued by NWS

Home | Current Version | Previous Version | Text Only | Print | Product List | Glossary On
Versions: 1 2 3 4 5 6 7 8 9 10 11 12 13 14 15 16 17 18 19 20 21 22 23 24 25 26 27 28 29 30 31 32 33 34 35 36 37 38 39 40 41 42 43 44 45 46 47 48 49 50
000
ASUS43 KTOP 211859
RWRKS

WEATHER ROUNDUP FOR KANSAS
NATIONAL WEATHER SERVICE GOODLAND KS
200 PM CDT FRI JUL 21 2017

NOTE:  "FAIR" INDICATES FEW OR NO CLOUDS BELOW 12,000 FEET WITH NO
SIGNIFICANT WEATHER AND/OR OBSTRUCTIONS TO VISIBILITY.

KSZ001>006-013>018-027>032-041>047-212000-
NORTHWEST KANSAS

CITY           SKY/WX    TMP DP  RH WIND       PRES   REMARKS
GOODLAND       SUNNY     98  63  31 SE10      29.96S HX 100
HAYS           SUNNY    103  63  27 SW17      29.86F HX 105
HILL CITY      SUNNY    105  57  20 S15G23    29.85F HX 104
RUSSELL        SUNNY    103  62  26 S20G28    29.84F HX 105
$$

KSZ061>065-074>080-084>089-212000-
SOUTHWEST KANSAS

CITY           SKY/WX    TMP DP  RH WIND       PRES   REMARKS
DODGE CITY     SUNNY    102  56  21 S16G24    29.93F HX 101
ELKHART          N/A     97  50  20 S16         N/A
GARDEN CITY    SUNNY    100  53  20 SW17      29.93F HX  98
LIBERAL        MOSUNNY  100  57  23 SW22      29.97S HX  99
$$

KSZ066>073-081>083-090>101-212000-
SOUTHEAST KANSAS

CITY           SKY/WX    TMP DP  RH WIND       PRES   REMARKS
CHANUTE        SUNNY     97  72  44 S9G20     29.94F HX 105
COFFEYVILLE    SUNNY     96  74  48 S12G21    29.94F HX 107
HUTCHINSON     SUNNY    105  60  22 S22G29    29.88F HX 106
MEDICINE LODGE   N/A    103  54  19 SW10G26   29.89F HX 101
NEWTON         SUNNY    101  67  32 S20G28    29.91F HX 106
PARSONS        SUNNY     96  73  47 S10       29.96F HX 105
WICHITA INTL   MOSUNNY  102  66  30 S12G25    29.90F HX 106
WICHITA JABRA  SUNNY    101  67  32 S20       29.91F HX 106
WINFIELD       SUNNY    101  68  34 S22G29    29.93F HX 106
$$

KSZ007>012-019>026-033>040-048>060-102>105-212000-
NORTHEAST KANSAS

CITY           SKY/WX    TMP DP  RH WIND       PRES   REMARKS
CONCORDIA      SUNNY    103  64  28 SW16G26   29.82F HX 106
EMPORIA        SUNNY    100  69  36 S18G26    29.90F HX 106
LAWRENCE       SUNNY     98  75  47 S14G22    29.88F HX 110
MANHATTAN      SUNNY    104  70  33 S14G24    29.84F HX 112
OLATHE IND     SUNNY     95  74  50 S15       29.92F HX 105
OLATHE EXE     SUNNY     92  76  59 S13G21    29.92F HX 104
SALINA         SUNNY    106  63  24 S22       29.85F HX 109
TOPEKA BILLARD SUNNY     98  76  49 S18G25    29.86F HX 112
TOPEKA FORBES  SUNNY     98  75  47 S15G23    29.88F HX 110
$$




USA.gov is the U.S. government's official web portal to all federal, state and local government web resources and services.